Location: Roanoke
(37.2710°N, 79.9420°W)
Time: 00:55:18
(UTC-05:00)

Transit 2A - Pass Details

Date: 01 December 2019
Orbit: 602 x 957 km, 66.7° (Epoch: 14 December)

Event Time Altitude Azimuth Distance (km) Brightness Sun altitude
Rises 10:10:27 0° 238° (WSW) 3,157 9.2 24.7°
Reaches altitude 10° 10:13:18 10° 252° (WSW) 2,174 8.3 25.0°
Maximum altitude 10:17:15 24° 306° (NW) 1,380 7.0 25.3°
Drops below altitude 10° 10:20:58 10° 1° (N) 2,035 7.8 25.7°
Sets 10:23:34 0° 15° (NNE) 2,909 8.6 25.9°
